User: anonymous   Login
Location: Fishcreek Rd Observing Site
(41.1865°N, 81.4271°W)
Time: 09:36:16
(UTC-05:00)
Language:

Iridium 45 - Orbit

View from above orbital plane
View from above orbital plane
View from above satellite
View from above satellite

Ground track
Ground track

The orbit data is extracted from the following two-line orbital elements,

1 25104U 97082A   17022.38526916  .00000128  00000-0  38791-4 0  9993
2 25104  86.3971 348.1845 0003151  77.4660 282.6888 14.34215819999479
Epoch (UTC): 22 January 2017 09:14:47
Eccentricity: 0.0003151
inclination: 86.3971°
perigee height: 775 km
apogee height: 780 km
right ascension of ascending node: 348.1845°
argument of perigee: 77.4660°
revolutions per day: 14.34215819
mean anomaly at epoch: 282.6888°
orbit number at epoch: 99947

The dashed part of the orbit path shows where the satellite is in the earth's shadow,  

DLR